Verona Villafranca Airport

Airport
ICAO code: 
LIPX
IATA Code: 
VRN
Summary
ICAO Region: 
EUR
Territory: 
Location: 
Villafranca di Verona, Veneto
Serving: 
Verona
Elevation: 
240 ft
Coordinates: 
Aerial View: 
45° 23' 50.439" N, 10° 53' 17.502" E
Metar
Observation
LIPX 170320Z 36003KT 280V030 6000 NSC M04/M05 Q1025
Station
Verona / Villafranca
Date/Time
2022-01-17 03:20:00
Wind direction
360°
Wind speed
03 kts
Lowest cloud amount
nil significant cloud
Temperature
-4°C
Dew point
-5°C
Humidity
92%
QNH
1025 hPa
Weather condition
n/a

Verona Airport, also known as Valerio Catullo Villafranca Airport or simply Verona-Villafranca Airport is an airport located 2.7 nm southwest of Verona, Italy.

Climatology

Humid “subtropical” climate influenced by the Mediterranean climate of the Italian Lakes (Köppen climate classification Cfa/Csa) - characterized by hot, humid summers and cool winters. Significant amounts of precipitation occur in all seasons in most areas. Winter rainfall (and sometimes snowfall) is associated with large storms that the westerlies steer from west to east. Most summer rainfall occurs during thunderstorms. High relative humidity frequently causes fog mainly from dusk until late morning.

Runways

Designator Length Width Surface Rops
4/22 3068 45 ASP Yes/Yes
Airport map: 
Aerial View: 

SKYbrary Partners:

Safety knowledge contributed by: